Yuma, AZ

2:32 AM MST on August 31, 2016 (GMT -0700)
Yuma Marine Corps Air Station

Weather History for KNYL - August, 2014

Change the Weather History Date:

Saturday, August 30, 2014

  Actual Average Record
Temperature  
Mean Temperature 98 °F 93 °F  
Max Temperature 113 °F 106 °F 114 °F (1950)
Min Temperature 83 °F 81 °F 58 °F (1907)
Degree Days  
Heating Degree Days 0 0  
Month to date heating degree days 0 0  
Since 1 June heating degree days 0 0  
Since 1 July heating degree days 0 0  
Cooling Degree Days 33 28  
Month to date cooling degree days 853 880  
Year to date cooling degree days 3802 3426  
Since 1 June cooling degree days 2640 2514  
Growing Degree Days 48 (Base 50)    
Moisture  
Dew Point 45 °F    
Average Humidity 20    
Maximum Humidity 31    
Minimum Humidity 8    
Precipitation  
Precipitation 0.00 in 0.02 in 1.44 in (1909)
Month to date precipitation 0.49 0.46  
Year to date precipitation 0.84 2.08  
Sea Level Pressure  
Sea Level Pressure 29.67 in    
Wind  
Wind Speed 7 mph (South)    
Max Wind Speed 15 mph    
Max Gust Speed 20 mph    
Visibility 10 miles    
Events      
T = Trace of Precipitation, MM = Missing Value Source: NWS Daily Summary

Daily Weather History Graph

Daily Weather History Graph

Search for Another Location

Airport or City:

Trip Planner

Search our weather history database for the weather conditions in past years. The results will help you decide how hot, cold, wet, or windy it might be!

Date:

Astronomy

Aug. 30, 2014 Rise Set
Actual Time 6:11 AM MST 7:05 PM MST
Civil Twilight 5:46 AM MST 7:30 PM MST
Nautical Twilight 5:16 AM MST 8:00 PM MST
Astronomical Twilight 4:46 AM MST 8:30 PM MST
Moon 10:45 AM MST (8/30) 10:01 PM MST (8/30)
Length of Visible Light 13h 43m
Length of Day
12h 53m
Waxing Crescent, 24% of the Moon is Illuminated
Aug 30
Waxing Crescent
Sep 2
First Quarter
Sep 8
Full
Sep 15
Last Quarter
Sep 23
New

Hourly Weather History & Observations

Time (MST) Temp. Dew Point Humidity Pressure Visibility Wind Dir Wind Speed Gust Speed Precip Events Conditions
12:57 AM 90.0 °F 48.0 °F 24% 29.68 in 10.0 mi SSE 5.8 mph - N/A   Clear
1:57 AM 88.0 °F 48.9 °F 26% 29.68 in 10.0 mi Calm Calm - N/A   Clear
2:57 AM 87.1 °F 48.0 °F 26% 29.67 in 10.0 mi Calm Calm - N/A   Clear
3:57 AM 86.0 °F 46.9 °F 26% 29.67 in 10.0 mi SSE 3.5 mph - N/A   Clear
4:57 AM 84.0 °F 50.0 °F 31% 29.67 in 10.0 mi North 3.5 mph - N/A   Clear
5:57 AM 82.9 °F 46.9 °F 28% 29.68 in 10.0 mi NE 4.6 mph - N/A   Clear
6:57 AM 86.0 °F 46.9 °F 26% 29.70 in 10.0 mi Calm Calm - N/A   Clear
7:57 AM 91.0 °F 46.9 °F 22% 29.71 in 10.0 mi SSE 4.6 mph - N/A   Clear
8:57 AM 93.0 °F 45.0 °F 19% 29.72 in 10.0 mi SSW 4.6 mph - N/A   Clear
9:57 AM 99.0 °F 48.0 °F 18% 29.73 in 10.0 mi South 9.2 mph - N/A   Clear
10:57 AM 102.9 °F 46.0 °F 15% 29.72 in 10.0 mi South 8.1 mph - N/A   Clear
11:57 AM 106.0 °F 48.0 °F 14% 29.71 in 10.0 mi SW 9.2 mph - N/A   Clear
12:57 PM 109.0 °F 46.9 °F 13% 29.70 in 10.0 mi South 10.4 mph - N/A   Clear
1:57 PM 111.9 °F 41.0 °F 9% 29.67 in 10.0 mi SSW 12.7 mph 19.6 mph N/A   Clear
2:57 PM 113.0 °F 41.0 °F 9% 29.64 in 10.0 mi South 11.5 mph - N/A   Clear
3:57 PM 111.9 °F 37.0 °F 8% 29.63 in 10.0 mi SW 8.1 mph 18.4 mph N/A   Partly Cloudy
4:57 PM 111.0 °F 39.9 °F 9% 29.62 in 10.0 mi South 10.4 mph - N/A   Partly Cloudy
5:57 PM 109.9 °F 39.9 °F 9% 29.62 in 10.0 mi South 11.5 mph - N/A   Clear
6:57 PM 105.1 °F 43.0 °F 12% 29.62 in 10.0 mi South 8.1 mph - N/A   Clear
7:57 PM 100.0 °F 44.1 °F 15% 29.64 in 10.0 mi SSW 10.4 mph - N/A   Clear
8:57 PM 96.1 °F 45.0 °F 17% 29.65 in 10.0 mi South 8.1 mph - N/A   Clear
9:57 PM 96.1 °F 42.1 °F 15% 29.66 in 10.0 mi South 10.4 mph - N/A   Clear
10:57 PM 91.0 °F 43.0 °F 19% 29.67 in 10.0 mi South 6.9 mph - N/A   Clear
11:57 PM 91.0 °F 48.0 °F 23% 29.68 in 10.0 mi SSE 9.2 mph - N/A   Clear